Location: Shenandoah County Park
(38.9356°N, 78.4524°W)
Time: 14:14:59
(UTC-05:00)

Vanguard 2 Rocket - Pass Details

Date: 10 December 2023
Orbit: 555 x 3309 km, 32.9° (Epoch: 03 March)

Event Time Altitude Azimuth Distance (km) Brightness Sun altitude
Rises 11:36:39 0° 215° (SW) 4,849 11.3 27.7°
Reaches altitude 10° 11:39:40 10° 207° (SSW) 4,196 11.3 27.8°
Maximum altitude 11:50:42 40° 143° (SE) 3,404 11.1 28.0°
Drops below altitude 10° 12:07:01 10° 83° (E) 6,146 11.1 28.1°
Sets 12:12:34 0° 78° (ENE) 7,283 11.4 28.1°
